Het weer levert geen direct gevaar op.    Er zijn geen waarschuwingen afgegeven.

Weather Underground Historische gegevens

Dagelijkse Samenvatting juni 20, 2018 Eenheden:  Metrisch    Engels   Beide
« Vorige Dag
Volgende Dag »
Dagelijkse Wekelijkse Maandelijkse Jaarlijkse Aangepaste
  Huidig: Hoog: Laag: Gemiddeld:
Temperatuur: -3.3 °C -17.8 °C -9.4 °C -6.4 °C
Dauwpunt: -6.9 °C -17.8 °C -10.1 °C -8.1 °C
Vochtigheid: 68 % Humidity % 65 % 83 %
Wind snelheid: 5.1 km/h 0 km/h 0 km/h 4.2 km/h
Windvlaag: 23.3 km/h 0 km/h - -
Wind:South - - SSE
Luchtdruk: 34411.9 hPa 0 hPa 34411.9 hPa -
Neerslag: 7.62 mm      
Historical Graphs
 
 
Tabel voor juni 20, 2018
Tijd Temperatuur Dauwpunt Luchtdruk Wind Wind snelheid Windvlaag Vochtigheid Regenval per uur
-17.8 °C -17.8 °C 0 hPa Calm     Humidity % 0 mm
00:01 -7.5 °C -8.2 °C 34618.5 hPa Calm     93 % 0 mm
00:07 -7.6 °C -8.2 °C 34618.5 hPa Calm     93 % 0 mm
00:15 -7.6 °C -8.2 °C 34615.1 hPa Calm     93 % 0 mm
00:18 -7.7 °C -8.3 °C 34615.1 hPa Calm     93 % 0 mm
00:25 -7.7 °C -8.3 °C 34611.7 hPa Calm     93 % 0 mm
00:30 -7.7 °C -8.4 °C 34615.1 hPa Calm     93 % 0 mm
00:35 -7.7 °C -8.3 °C 34615.1 hPa Calm     94 % 0 mm
00:41 -7.8 °C -8.3 °C 34611.7 hPa Calm     94 % 0 mm
00:52 -7.8 °C -8.3 °C 34608.3 hPa Calm     94 % 0 mm
01:00 -7.9 °C -8.4 °C 34608.3 hPa Calm     94 % 0 mm
01:03 -8 °C -8.6 °C 34608.3 hPa Calm     94 % 0 mm
01:10 -8.1 °C -8.7 °C 34604.9 hPa Calm     94 % 0 mm
01:15 -8.2 °C -8.7 °C 34604.9 hPa Calm     94 % 0 mm
01:20 -8.3 °C -8.8 °C 34604.9 hPa Calm     95 % 0 mm
01:26 -8.4 °C -8.9 °C 34601.5 hPa Calm     94 % 0 mm
01:26 -8.5 °C -9.1 °C 34601.5 hPa Calm     94 % 0 mm
01:37 -8.6 °C -9.1 °C 34601.5 hPa Calm     94 % 0 mm
01:45 -8.7 °C -9.3 °C 34601.5 hPa Calm     94 % 0 mm
01:48 -8.8 °C -9.3 °C 34598.1 hPa Calm     94 % 0 mm
01:54 -8.8 °C -9.4 °C 34598.1 hPa Calm     94 % 0 mm
02:00 -8.8 °C -9.4 °C 34598.1 hPa Calm     94 % 0 mm
02:05 -8.8 °C -9.3 °C 34598.1 hPa Calm     94 % 0 mm
02:11 -8.7 °C -9.3 °C 34594.8 hPa Calm   5.1 km/h 94 % 0 mm
02:22 -8.7 °C -9.2 °C 34594.8 hPa Calm     94 % 0 mm
02:30 -8.7 °C -9.3 °C 34591.4 hPa Calm     94 % 0 mm
02:33 -8.8 °C -9.3 °C 34591.4 hPa Calm     94 % 0 mm
02:39 -8.8 °C -9.3 °C 34588 hPa Calm     94 % 0 mm
02:45 -8.8 °C -9.4 °C 34588 hPa Calm     94 % 0 mm
02:50 -8.9 °C -9.4 °C 34584.6 hPa Calm     94 % 0 mm
02:56 -8.9 °C -9.5 °C 34581.2 hPa Calm     94 % 0 mm
03:07 -8.9 °C -9.6 °C 34577.8 hPa Calm     93 % 0 mm
03:15 -8.8 °C -9.5 °C 34577.8 hPa Calm   12.9 km/h 93 % 0 mm
03:18 -8.9 °C -9.5 °C 34581.2 hPa Calm     93 % 0 mm
03:24 -8.9 °C -9.6 °C 34584.6 hPa Calm     93 % 0 mm
03:30 -8.9 °C -9.6 °C 34581.2 hPa Calm     93 % 0 mm
03:35 -9 °C -9.6 °C 34574.4 hPa Calm     93 % 0 mm
03:41 -9.1 °C -9.7 °C 34577.8 hPa Calm     93 % 0 mm
03:52 -9.1 °C -9.7 °C 34574.4 hPa Calm     93 % 0 mm
03:52 -9.1 °C -9.7 °C 34577.8 hPa Calm     93 % 0 mm
03:58 -9.1 °C -9.7 °C 34577.8 hPa Calm     93 % 0 mm
04:03 -9.1 °C -9.7 °C 34574.4 hPa Calm     93 % 0 mm
04:09 -9.1 °C -9.8 °C 34574.4 hPa Calm     93 % 0 mm
04:15 -9.2 °C -9.8 °C 34574.4 hPa Calm     93 % 0 mm
04:20 -9.2 °C -9.8 °C 34574.4 hPa Calm     93 % 0 mm
04:26 -9.2 °C -9.8 °C 34574.4 hPa Calm     93 % 0 mm
04:26 -9.3 °C -9.9 °C 34571.1 hPa Calm     93 % 0 mm
04:37 -9.3 °C -9.9 °C 34571.1 hPa Calm     93 % 0 mm
04:43 -9.4 °C -10 °C 34571.1 hPa Calm     93 % 0 mm
04:48 -9.3 °C -10.1 °C 34567.7 hPa Calm     92 % 0 mm
04:54 -9.3 °C -10 °C 34571.1 hPa Calm     92 % 0 mm
05:00 -9.3 °C -9.9 °C 34567.7 hPa Calm     92 % 0 mm
05:05 -9.3 °C -9.9 °C 34567.7 hPa Calm   12.9 km/h 92 % 0 mm
05:11 -9.3 °C -9.9 °C 34567.7 hPa Calm     92 % 0 mm
05:16 -9.3 °C -9.9 °C 34564.3 hPa Calm   5.1 km/h 92 % 0 mm
05:22 -9.2 °C -9.9 °C 34564.3 hPa Calm     92 % 0 mm
05:30 -9.2 °C -9.9 °C 34560.9 hPa Calm     92 % 0 mm
05:33 -9.2 °C -9.9 °C 34560.9 hPa Calm     92 % 0 mm
05:39 -9.2 °C -9.9 °C 34560.9 hPa Calm   10.3 km/h 92 % 0 mm
05:45 -9.2 °C -9.9 °C 34560.9 hPa Calm     91 % 0 mm
05:50 -9.2 °C -9.9 °C 34560.9 hPa Calm     91 % 0 mm
05:56 -9.1 °C -9.9 °C 34560.9 hPa Calm     91 % 0 mm
06:01 -9.1 °C -9.9 °C 34560.9 hPa Calm   10.3 km/h 91 % 7.62 mm
06:07 -9 °C -9.8 °C 34560.9 hPa Calm   5.1 km/h 91 % 7.62 mm
06:07 -8.9 °C -9.8 °C 34560.9 hPa Calm   5.1 km/h 91 % 0 mm
06:15 -8.9 °C -9.8 °C 34560.9 hPa Calm   2.6 km/h 91 % 0 mm
06:18 -8.9 °C -9.7 °C 34560.9 hPa Calm     91 % 0 mm
06:24 -8.8 °C -9.7 °C 34560.9 hPa Calm     91 % 0 mm
06:30 -8.8 °C -9.7 °C 34560.9 hPa Calm   10.3 km/h 90 % 0 mm
06:35 -8.7 °C -9.6 °C 34560.9 hPa Calm   10.3 km/h 90 % 0 mm
06:41 -8.7 °C -9.6 °C 34560.9 hPa Calm   15.6 km/h 90 % 0 mm
06:46 -8.6 °C -9.5 °C 34560.9 hPa Calm   10.3 km/h 90 % 0 mm
06:52 -8.4 °C -9.4 °C 34560.9 hPa Calm   7.7 km/h 90 % 0 mm
07:00 -8.3 °C -9.2 °C 34557.5 hPa Calm   5.1 km/h 90 % 0 mm
07:03 -8.2 °C -9.1 °C 34557.5 hPa Calm   15.6 km/h 90 % 0 mm
07:09 -8.1 °C -9 °C 34554.1 hPa Calm   12.9 km/h 90 % 0 mm
07:15 -7.9 °C -8.9 °C 34554.1 hPa SSE 2.6 km/h 10.3 km/h 89 % 0 mm
07:20 -7.8 °C -8.8 °C 34554.1 hPa Calm   12.9 km/h 90 % 0 mm
07:26 -7.8 °C -8.8 °C 34554.1 hPa SSE 2.6 km/h 12.9 km/h 90 % 0 mm
07:31 -7.8 °C -8.7 °C 34554.1 hPa South 5.1 km/h 12.9 km/h 91 % 0 mm
07:37 -7.8 °C -8.6 °C 34554.1 hPa South 2.6 km/h 12.9 km/h 91 % 0 mm
07:45 -7.7 °C -8.4 °C 34554.1 hPa SSE 2.6 km/h 10.3 km/h 92 % 0 mm
07:48 -7.6 °C -8.4 °C 34554.1 hPa SSE 2.6 km/h 10.3 km/h 92 % 0 mm
07:55 -7.6 °C -8.3 °C 34550.7 hPa SSE 2.6 km/h 12.9 km/h 92 % 0 mm
08:00 -7.6 °C -8.2 °C 34550.7 hPa SSE 2.6 km/h 15.6 km/h 93 % 0 mm
08:05 -7.4 °C -8 °C 34547.4 hPa SSE 5.1 km/h 15.6 km/h 93 % 0 mm
08:11 -7.3 °C -7.9 °C 34547.4 hPa SSE 5.1 km/h 15.6 km/h 93 % 0 mm
08:11 -7.1 °C -7.8 °C 34547.4 hPa SSE 5.1 km/h 20.8 km/h 93 % 0 mm
08:22 -7.1 °C -7.7 °C 34547.4 hPa SSE 2.6 km/h 15.6 km/h 93 % 0 mm
08:22 -6.9 °C -7.6 °C 34544 hPa SSE 7.7 km/h 25.9 km/h 93 % 0 mm
08:30 -6.8 °C -7.4 °C 34544 hPa SSE 7.7 km/h 20.8 km/h 93 % 0 mm
08:33 -6.7 °C -7.4 °C 34544 hPa SSE 5.1 km/h 38.8 km/h 92 % 0 mm
08:40 -6.6 °C -7.4 °C 34544 hPa SSE 2.6 km/h 31.1 km/h 92 % 0 mm
08:45 -6.6 °C -7.4 °C 34544 hPa SSE 7.7 km/h 20.8 km/h 91 % 0 mm
08:50 -6.4 °C -7.3 °C 34540.6 hPa SSE 7.7 km/h 20.8 km/h 91 % 0 mm
08:56 -6.3 °C -7.3 °C 34544 hPa SSE 12.9 km/h 23.3 km/h 90 % 0 mm
09:07 -6.2 °C -7.3 °C 34540.6 hPa SSE 7.7 km/h 18.2 km/h 89 % 0 mm
09:15 -5.9 °C -7 °C 34540.6 hPa SSE 2.6 km/h 20.8 km/h 89 % 0 mm
09:18 -5.9 °C -7.2 °C 34540.6 hPa SSE 7.7 km/h 23.3 km/h 87 % 0 mm
09:25 -5.9 °C -7.2 °C 34540.6 hPa SSE 7.7 km/h 20.8 km/h 86 % 0 mm
09:30 -5.8 °C -7.1 °C 34540.6 hPa SSE 5.1 km/h 18.2 km/h 86 % 0 mm
09:35 -5.8 °C -7.2 °C 34540.6 hPa South 5.1 km/h 18.2 km/h 85 % 0 mm
09:41 -5.8 °C -7.2 °C 34540.6 hPa South 7.7 km/h 18.2 km/h 85 % 0 mm
09:52 -5.7 °C -7.3 °C 34540.6 hPa SSE 7.7 km/h 25.9 km/h 84 % 0 mm
09:52 -5.6 °C -7.1 °C 34540.6 hPa SSE 5.1 km/h 15.6 km/h 85 % 0 mm
10:00 -5.4 °C -6.9 °C 34540.6 hPa South 2.6 km/h 15.6 km/h 85 % 0 mm
10:03 -5.3 °C -7 °C 34537.2 hPa South 7.7 km/h 20.8 km/h 83 % 0 mm
10:09 -5.2 °C -7.1 °C 34537.2 hPa South 7.7 km/h 28.5 km/h 82 % 0 mm
10:15 -5.2 °C -7.2 °C 34537.2 hPa SSE 7.7 km/h 25.9 km/h 81 % 0 mm
10:26 -5.1 °C -7.1 °C 34530.4 hPa SSE 7.7 km/h 25.9 km/h 80 % 0 mm
10:37 -5.3 °C -7.3 °C 34530.4 hPa SSE 7.7 km/h 23.3 km/h 80 % 0 mm
10:45 -5.2 °C -7.2 °C 34533.8 hPa SSE 7.7 km/h 23.3 km/h 80 % 0 mm
10:48 -5.2 °C -7.2 °C 34533.8 hPa SSE 5.1 km/h 15.6 km/h 80 % 0 mm
10:54 -5.1 °C -7.1 °C 34530.4 hPa SSE 12.9 km/h 18.2 km/h 80 % 0 mm
11:00 -5.1 °C -7.1 °C 34527 hPa South 5.1 km/h 18.2 km/h 80 % 0 mm
11:05 -5.2 °C -7.2 °C 34527 hPa SSE 5.1 km/h 18.2 km/h 80 % 0 mm
11:11 -5.2 °C -7.1 °C 34530.4 hPa SSE 5.1 km/h 28.5 km/h 81 % 0 mm
11:22 -5.1 °C -7.3 °C 34527 hPa SSE 7.7 km/h 28.5 km/h 79 % 0 mm
11:30 -5.1 °C -7.1 °C 34523.7 hPa SSE 7.7 km/h 20.8 km/h 80 % 0 mm
11:33 -4.9 °C -7.1 °C 34523.7 hPa SSE 5.1 km/h 25.9 km/h 79 % 0 mm
11:39 -4.9 °C -7.1 °C 34523.7 hPa SSE 5.1 km/h 23.3 km/h 79 % 0 mm
11:45 -4.8 °C -7.1 °C 34523.7 hPa SSE 5.1 km/h 18.2 km/h 78 % 0 mm
11:50 -4.9 °C -7.2 °C 34520.3 hPa SSE 7.7 km/h 20.8 km/h 77 % 0 mm
11:56 -4.9 °C -7.2 °C 34520.3 hPa SSE 5.1 km/h 15.6 km/h 78 % 0 mm
12:07 -4.9 °C -6.8 °C 34516.9 hPa SSE 2.6 km/h 10.3 km/h 81 % 0 mm
12:13 -4.8 °C -7.1 °C 34516.9 hPa SSE 12.9 km/h 20.8 km/h 77 % 0 mm
12:18 -4.8 °C -7.2 °C 34516.9 hPa SSE 12.9 km/h 23.3 km/h 77 % 0 mm
12:24 -4.7 °C -6.9 °C 34520.3 hPa SSE 5.1 km/h 23.3 km/h 78 % 0 mm
12:30 -4.7 °C -7.1 °C 34520.3 hPa SSE 5.1 km/h 15.6 km/h 77 % 0 mm
12:35 -4.6 °C -7 °C 34513.5 hPa South 12.9 km/h 20.8 km/h 77 % 0 mm
12:41 -4.7 °C -7.1 °C 34513.5 hPa SSE 12.9 km/h 28.5 km/h 77 % 0 mm
12:52 -4.6 °C -7 °C 34510.1 hPa SSE 7.7 km/h 20.8 km/h 77 % 0 mm
12:58 -4.4 °C -7.1 °C 34510.1 hPa South 7.7 km/h 23.3 km/h 75 % 0 mm
13:03 -4.4 °C -7 °C 34506.7 hPa SSE 5.1 km/h 20.8 km/h 75 % 0 mm
13:09 -4.3 °C -6.8 °C 34503.3 hPa SSE 5.1 km/h 18.2 km/h 76 % 0 mm
13:15 -4.3 °C -6.9 °C 34500 hPa South 7.7 km/h 31.1 km/h 75 % 0 mm
13:20 -4.3 °C -7.1 °C 34496.6 hPa SSE 7.7 km/h 31.1 km/h 74 % 0 mm
13:26 -4.3 °C -7.1 °C 34496.6 hPa SSE 7.7 km/h 20.8 km/h 74 % 0 mm
13:31 -4.3 °C -6.9 °C 34496.6 hPa South 7.7 km/h 18.2 km/h 75 % 0 mm
13:37 -4.1 °C -6.7 °C 34493.2 hPa SSE 5.1 km/h 20.8 km/h 75 % 0 mm
13:45 -3.9 °C -6.9 °C 34493.2 hPa SSE 7.7 km/h 28.5 km/h 72 % 0 mm
13:48 -4.1 °C -7 °C 34489.8 hPa SSE 5.1 km/h 18.2 km/h 73 % 0 mm
13:54 -4.1 °C -6.8 °C 34489.8 hPa South 2.6 km/h 12.9 km/h 74 % 0 mm
14:00 -4 °C -6.9 °C 34486.4 hPa South 7.7 km/h 23.3 km/h 73 % 0 mm
14:05 -4 °C -6.8 °C 34486.4 hPa South 7.7 km/h 36.2 km/h 73 % 0 mm
14:11 -3.9 °C -6.8 °C 34483 hPa South 5.1 km/h 23.3 km/h 73 % 0 mm
14:16 -3.9 °C -6.8 °C 34479.6 hPa South 5.1 km/h 25.9 km/h 73 % 0 mm
14:22 -4 °C -7 °C 34479.6 hPa South 7.7 km/h 18.2 km/h 72 % 0 mm
14:30 -3.8 °C -6.7 °C 34472.9 hPa SSE 12.9 km/h 18.2 km/h 73 % 0 mm
14:33 -3.8 °C -6.6 °C 34472.9 hPa SSE 7.7 km/h 28.5 km/h 73 % 0 mm
14:39 -3.7 °C -6.7 °C 34469.5 hPa SSE 5.1 km/h 18.2 km/h 72 % 0 mm
14:45 -3.6 °C -6.5 °C 34466.1 hPa SSE 12.9 km/h 23.3 km/h 73 % 0 mm
14:50 -3.6 °C -6.8 °C 34462.7 hPa South 7.7 km/h 23.3 km/h 71 % 0 mm
14:56 -3.6 °C -6.7 °C 34462.7 hPa South 12.9 km/h 20.8 km/h 71 % 0 mm
15:01 -3.6 °C -6.7 °C 34462.7 hPa South 7.7 km/h 20.8 km/h 71 % 0 mm
15:07 -3.7 °C -6.7 °C 34459.3 hPa SSE 12.9 km/h 18.2 km/h 72 % 0 mm
15:15 -3.4 °C -6.4 °C 34455.9 hPa SSE 7.7 km/h 20.8 km/h 72 % 0 mm
15:18 -3.4 °C -6.6 °C 34455.9 hPa SSE 5.1 km/h 25.9 km/h 71 % 0 mm
15:24 -3.4 °C -6.6 °C 34455.9 hPa SSE 7.7 km/h 23.3 km/h 71 % 0 mm
15:30 -3.4 °C -6.6 °C 34455.9 hPa SSE 7.7 km/h 25.9 km/h 71 % 0 mm
15:35 -3.4 °C -6.7 °C 34455.9 hPa SSE 7.7 km/h 20.8 km/h 70 % 0 mm
15:41 -3.4 °C -6.6 °C 34455.9 hPa SSE 7.7 km/h 23.3 km/h 71 % 0 mm
15:46 -3.4 °C -6.7 °C 34452.6 hPa SSE 7.7 km/h 18.2 km/h 70 % 0 mm
15:52 -3.4 °C -6.6 °C 34452.6 hPa South 15.6 km/h 28.5 km/h 71 % 0 mm
15:52 -3.4 °C -6.6 °C 34452.6 hPa South 5.1 km/h 15.6 km/h 71 % 0 mm
16:00 -3.5 °C -6.5 °C 34449.2 hPa South 5.1 km/h 18.2 km/h 72 % 0 mm
16:03 -3.5 °C -6.6 °C 34449.2 hPa South 5.1 km/h 18.2 km/h 71 % 0 mm
16:10 -3.6 °C -6.7 °C 34449.2 hPa SSE 12.9 km/h 28.5 km/h 71 % 0 mm
16:15 -3.6 °C -6.7 °C 34445.8 hPa SSE 2.6 km/h 12.9 km/h 71 % 0 mm
16:20 -3.4 °C -6.5 °C 34445.8 hPa South 7.7 km/h 23.3 km/h 71 % 0 mm
16:26 -3.3 °C -6.6 °C 34445.8 hPa South 12.9 km/h 25.9 km/h 70 % 0 mm
16:37 -3.4 °C -6.7 °C 34449.2 hPa South 5.1 km/h 20.8 km/h 70 % 0 mm
16:45 -3.3 °C -6.6 °C 34445.8 hPa South 12.9 km/h 25.9 km/h 70 % 0 mm
16:48 -3.4 °C -6.7 °C 34445.8 hPa South 15.6 km/h 28.5 km/h 70 % 0 mm
16:55 -3.5 °C -6.8 °C 34442.4 hPa South 7.7 km/h 20.8 km/h 70 % 0 mm
17:00 -3.5 °C -6.8 °C 34442.4 hPa South 7.7 km/h 18.2 km/h 70 % 0 mm
17:05 -3.4 °C -6.6 °C 34439 hPa SSE 5.1 km/h 18.2 km/h 71 % 0 mm
17:11 -3.5 °C -6.8 °C 34439 hPa SSE 7.7 km/h 20.8 km/h 70 % 0 mm
17:22 -3.4 °C -6.6 °C 34432.2 hPa SSE 7.7 km/h 20.8 km/h 71 % 0 mm
17:30 -3.4 °C -6.6 °C 34428.8 hPa South 2.6 km/h 18.2 km/h 70 % 0 mm
17:33 -3.3 °C -6.4 °C 34428.8 hPa SSE 5.1 km/h 23.3 km/h 71 % 0 mm
17:40 -3.2 °C -6.3 °C 34428.8 hPa SSE 5.1 km/h 31.1 km/h 71 % 0 mm
17:45 -3.3 °C -6.7 °C 34425.5 hPa South 7.7 km/h 25.9 km/h 69 % 0 mm
17:50 -3.3 °C -6.3 °C 34422.1 hPa South 2.6 km/h 18.2 km/h 72 % 0 mm
17:56 -3.2 °C -6.4 °C 34418.7 hPa South 5.1 km/h 23.3 km/h 71 % 0 mm
18:07 -3 °C -6.6 °C 34418.7 hPa SSW 7.7 km/h 23.3 km/h 68 % 0 mm
18:15 -3 °C -6.8 °C 34418.7 hPa South 7.7 km/h 31.1 km/h 66 % 0 mm
18:18 -3.2 °C -7.1 °C 34418.7 hPa SSW 15.6 km/h 28.5 km/h 65 % 0 mm
18:24 -3.3 °C -7.1 °C 34415.3 hPa SSW 7.7 km/h 28.5 km/h 66 % 0 mm
18:30 -3.4 °C -7.1 °C 34415.3 hPa SSW 5.1 km/h 25.9 km/h 67 % 0 mm
18:41 -3.3 °C -6.9 °C 34411.9 hPa South 5.1 km/h 23.3 km/h 68 % 0 mm
Meteo Sleen
Gegevens verzameld door Weather Underground - 2 mb

Script ontwikkeld door  Jim McMurry - jmcmurry@mwt.net Aangepast voor de template door  Wim van der Kuil - Leuven-Template.eu

U vindt ons ook hier:

Het Weer Aktueel

UK Metoffice

European Weather Network

Weather Underground

Benelux Weer Netwerk

AWEKAS

Citizen Weather Observer Program (CWOP)

Apparatuur in gebruik:

Weerstation
Davis VP2

Weerprogramma
consoleWD

Weercomputer
RaspberryPI

Webleverancier
Deziweb

Davis VP2

consoleWD

RaspberryPI

Deziweb